Date String (YYYY-MM-DD hh:mm:ss) UTC,Instrument flags,Ambient pressure (hPa),Sample flow (lpm),Bypass flow (lpm),Sample temperature (°C),Ambient temperature (°C),ASC tube jacket temperature (°C),LED temperature (°C),Box temperature (°C),Sample RH (%),Span deviation,Mass concentration (μg/m³),Mass concentration (μg/m³),Mass concentration (μg/m³)
DateTimeUTC,F1_M11,P_M11,Q1_M11,Q2_M11,T1_M11,T2_M11,T3_M11,T4_M11,T5_M11,U1_M11,ZSPAN_M11,X0_M11,X2_M11,X1_M11
2023-05-29 14:00:00,,0829.7,5.00,0.00,29.0,27.4,00.0,37.3,30.6,25.0,0000.0,0008.78,0004.11,0003.30
2023-05-29 14:01:00,,0829.7,5.01,0.00,29.0,27.4,00.0,37.3,30.6,24.7,0000.0,0009.33,0004.12,0003.31
2023-05-29 14:02:00,,0829.7,5.00,0.00,29.0,27.4,00.0,37.3,30.6,24.1,0000.0,0009.17,0004.08,0003.31
2023-05-29 14:03:00,,0829.7,5.00,0.00,29.0,27.4,00.0,37.3,30.6,23.9,0000.0,0009.52,0004.07,0003.32
2023-05-29 14:04:00,,0829.7,5.00,0.00,29.0,27.4,00.0,37.3,30.6,23.9,0000.0,0009.46,0004.06,0003.31
2023-05-29 14:05:00,,0829.7,4.99,0.00,29.0,27.4,00.0,37.3,30.6,24.0,0000.0,0009.55,0004.07,0003.32
2023-05-29 14:06:00,,0829.8,5.00,0.00,29.0,27.4,00.0,37.3,30.6,23.5,0000.0,0009.67,0004.11,0003.34
2023-05-29 14:07:00,,0829.7,4.99,0.00,29.0,27.4,00.0,37.3,30.6,23.4,0000.0,0009.69,0004.14,0003.35
2023-05-29 14:08:00,,0829.7,5.01,0.00,29.0,27.4,00.0,37.3,30.6,23.9,0000.0,0009.81,0004.18,0003.35
2023-05-29 14:09:00,,0829.7,5.01,0.00,29.0,27.4,00.0,37.3,30.6,24.0,0000.0,0009.88,0004.19,0003.36
2023-05-29 14:10:00,,0829.7,5.00,0.00,29.0,27.5,00.0,37.3,30.7,24.7,0000.0,0009.94,0004.18,0003.37
2023-05-29 14:11:00,,0829.7,4.99,0.00,29.0,27.5,00.0,37.4,30.7,25.4,0000.0,0009.49,0004.18,0003.37
2023-05-29 14:12:00,,0829.7,4.99,0.00,29.0,27.5,00.0,37.4,30.7,25.0,0000.0,0008.62,0004.14,0003.37
2023-05-29 14:13:00,,0829.7,5.00,0.00,29.1,27.5,00.0,37.4,30.7,24.5,0000.0,0008.39,0004.16,0003.37
2023-05-29 14:14:00,,0829.7,5.01,0.00,29.1,27.5,00.0,37.4,30.7,24.4,0000.0,0008.33,0004.17,0003.37
2023-05-29 14:15:00,,0829.7,5.01,0.00,29.1,27.5,00.0,37.4,30.7,25.2,0000.0,0008.54,0004.23,0003.39
2023-05-29 14:16:00,,0829.7,5.01,0.00,29.1,27.5,00.0,37.4,30.7,25.4,0000.0,0008.48,0004.25,0003.42
2023-05-29 14:17:00,,0829.7,5.00,0.00,29.1,27.5,00.0,37.4,30.7,24.6,0000.0,0008.58,0004.27,0003.42
2023-05-29 14:18:00,,0829.7,4.99,0.00,29.1,27.5,00.0,37.4,30.7,24.9,0000.0,0008.63,0004.26,0003.43
2023-05-29 14:19:00,,0829.7,4.99,0.00,29.1,27.6,00.0,37.4,30.7,25.2,0000.0,0008.66,0004.28,0003.46
2023-05-29 14:20:00,,0829.7,5.00,0.00,29.1,27.6,00.0,37.4,30.8,25.4,0000.0,0008.63,0004.27,0003.47
2023-05-29 14:21:00,,0829.7,5.01,0.00,29.1,27.6,00.0,37.4,30.7,25.2,0000.0,0008.75,0004.31,0003.48
2023-05-29 14:22:00,,0829.7,5.01,0.00,29.1,27.6,00.0,37.4,30.7,25.1,0000.0,0008.79,0004.34,0003.50
2023-05-29 14:23:00,,0829.7,5.01,0.00,29.1,27.6,00.0,37.4,30.8,25.3,0000.0,0009.22,0004.38,0003.51
2023-05-29 14:24:00,,0829.7,4.99,0.00,29.2,27.6,00.0,37.4,30.8,25.4,0000.0,0009.12,0004.35,0003.52
2023-05-29 14:25:00,,0829.7,4.98,0.00,29.2,27.6,00.0,37.5,30.8,25.3,0000.0,0008.86,0004.37,0003.55
2023-05-29 14:26:00,,0829.7,5.00,0.00,29.2,27.6,00.0,37.5,30.8,25.4,0000.0,0008.97,0004.35,0003.56
2023-05-29 14:27:00,,0829.7,5.01,0.00,29.2,27.6,00.0,37.5,30.8,24.6,0000.0,0009.74,0004.34,0003.57
2023-05-29 14:28:00,,0829.7,5.01,0.00,29.2,27.6,00.0,37.5,30.8,24.8,0000.0,0010.35,0004.36,0003.57
2023-05-29 14:29:00,,0829.7,5.00,0.00,29.2,27.6,00.0,37.5,30.8,25.1,0000.0,0010.71,0004.41,0003.57
2023-05-29 14:30:00,,0829.7,5.00,0.00,29.2,27.6,00.0,37.5,30.8,24.7,0000.0,0010.65,0004.39,0003.57
2023-05-29 14:31:00,,0829.7,5.00,0.00,29.2,27.6,00.0,37.5,30.8,24.4,0000.0,0010.70,0004.43,0003.58
2023-05-29 14:32:00,,0829.7,4.99,0.00,29.2,27.6,00.0,37.5,30.8,23.9,0000.0,0010.63,0004.44,0003.59
2023-05-29 14:33:00,,0829.7,5.00,0.00,29.2,27.7,00.0,37.5,30.8,24.2,0000.0,0010.54,0004.42,0003.58
2023-05-29 14:34:00,,0829.7,5.00,0.00,29.2,27.7,00.0,37.5,30.8,24.6,0000.0,0010.19,0004.44,0003.61
2023-05-29 14:35:00,,0829.7,5.01,0.00,29.2,27.7,00.0,37.5,30.8,24.5,0000.0,0010.31,0004.46,0003.62
2023-05-29 14:36:00,,0829.7,5.00,0.00,29.2,27.7,00.0,37.5,30.9,24.4,0000.0,0010.47,0004.48,0003.62
2023-05-29 14:37:00,,0829.7,5.00,0.00,29.3,27.7,00.0,37.5,30.9,24.3,0000.0,0010.55,0004.48,0003.61
2023-05-29 14:38:00,,0829.7,5.00,0.00,29.3,27.7,00.0,37.6,30.9,24.2,0000.0,0010.82,0004.49,0003.62
2023-05-29 14:39:00,,0829.7,5.00,0.00,29.3,27.7,00.0,37.6,30.9,24.0,0000.0,0010.35,0004.45,0003.62
2023-05-29 14:40:00,,0829.7,5.00,0.00,29.3,27.7,00.0,37.6,30.9,24.0,0000.0,0009.92,0004.43,0003.63
2023-05-29 14:41:00,,0829.7,5.01,0.00,29.3,27.8,00.0,37.6,30.9,24.4,0000.0,0009.87,0004.43,0003.63
2023-05-29 14:42:00,,0829.7,5.01,0.00,29.3,27.8,00.0,37.6,30.9,25.2,0000.0,0010.20,0004.43,0003.64
2023-05-29 14:43:00,,0829.7,5.01,0.00,29.3,27.8,00.0,37.6,30.9,24.7,0000.0,0010.30,0004.41,0003.63
2023-05-29 14:44:00,,0829.7,4.99,0.00,29.3,27.8,00.0,37.6,30.9,24.9,0000.0,0010.33,0004.42,0003.64
2023-05-29 14:45:00,,0829.7,5.00,0.00,29.3,27.8,00.0,37.6,30.9,24.7,0000.0,0010.32,0004.41,0003.63
2023-05-29 14:46:00,,0829.7,4.99,0.00,29.3,27.8,00.0,37.6,30.9,24.3,0000.0,0010.32,0004.44,0003.62
2023-05-29 14:47:00,,0829.7,5.00,0.00,29.3,27.8,00.0,37.6,30.9,24.2,0000.0,0010.21,0004.45,0003.63
2023-05-29 14:48:00,,0829.7,5.00,0.00,29.3,27.8,00.0,37.6,30.9,23.1,0000.0,0010.31,0004.47,0003.63
2023-05-29 14:49:00,,0829.7,5.00,0.00,29.3,27.8,00.0,37.6,31.0,23.9,0000.0,0009.40,0004.46,0003.63
2023-05-29 14:50:00,,0829.7,5.00,0.00,29.3,27.8,00.0,37.6,31.0,24.1,0000.0,0009.31,0004.51,0003.63
2023-05-29 14:51:00,,0829.7,4.99,0.00,29.3,27.8,00.0,37.7,31.0,23.5,0000.0,0009.36,0004.52,0003.63
2023-05-29 14:52:00,,0829.7,5.01,0.00,29.3,27.8,00.0,37.7,31.0,23.5,0000.0,0009.51,0004.53,0003.62
2023-05-29 14:53:00,,0829.7,5.01,0.00,29.4,27.8,00.0,37.7,31.0,22.7,0000.0,0009.33,0004.50,0003.61
2023-05-29 14:54:00,,0829.7,5.00,0.00,29.3,27.8,00.0,37.7,31.0,22.7,0000.0,0009.50,0004.44,0003.59
2023-05-29 14:55:00,,0829.6,5.01,0.00,29.4,27.9,00.0,37.7,31.0,22.2,0000.0,0009.40,0004.38,0003.57
2023-05-29 14:56:00,,0829.7,5.00,0.00,29.4,27.9,00.0,37.7,31.0,21.2,0000.0,0009.40,0004.34,0003.55
2023-05-29 14:57:00,,0829.7,4.99,0.00,29.4,27.9,00.0,37.7,31.0,22.1,0000.0,0009.29,0004.29,0003.52
2023-05-29 14:58:00,,0829.7,5.00,0.00,29.4,27.9,00.0,37.7,31.0,21.4,0000.0,0009.26,0004.27,0003.49
2023-05-29 14:59:00,,0829.6,5.00,0.00,29.4,27.9,00.0,37.7,31.0,21.7,0000.0,0008.77,0004.21,0003.47
